| time (UTC) | temp F | wind direction | speed MPH | gust MPH | rain 1hr in | rain 24hr in | rain mn in | humidity % | barometer mb |
| 20260504060155 | 43 | 283 | 0.0 | 0.0 | 0.00 | 0.00 | 0.00 | 83 | 1017.3 |
| 20260504050623 | 43 | 278 | 1.0 | 1.0 | 0.00 | 0.00 | 0.00 | 81 | 1017.4 |
| 20260504050120 | 43 | 291 | 1.0 | 1.0 | 0.00 | 0.00 | 0.00 | 81 | 1017.4 |
| 20260504045617 | 43 | 272 | 0.0 | 0.0 | 0.00 | 0.00 | 0.00 | 80 | 1017.3 |
| 20260504045112 | 43 | 272 | 0.0 | 0.0 | 0.00 | 0.00 | 0.00 | 81 | 1017.5 |
| 20260504044610 | 43 | 282 | 0.0 | 1.0 | 0.00 | 0.00 | 0.00 | 80 | 1017.3 |
| 20260504044106 | 43 | 271 | 0.0 | 0.0 | 0.00 | 0.00 | 0.00 | 81 | 1017.4 |
| 20260504043604 | 43 | 281 | 0.0 | 0.0 | 0.00 | 0.00 | 0.00 | 79 | 1017.3 |
| 20260504043101 | 43 | 269 | 0.0 | 0.0 | 0.00 | 0.00 | 0.00 | 78 | 1017.3 |
| 20260504042558 | 43 | 277 | 1.0 | 1.0 | 0.00 | 0.00 | 0.00 | 79 | 1017.3 |
| 20260504042055 | 43 | 272 | 0.0 | 0.0 | 0.00 | 0.00 | 0.00 | 79 | 1017.2 |
| 20260504041550 | 42 | 270 | 0.0 | 0.0 | 0.00 | 0.00 | 0.00 | 78 | 1017.1 |
| 20260504041047 | 42 | 267 | 0.0 | 0.0 | 0.00 | 0.00 | 0.00 | 80 | 1017.4 |
| 20260504040544 | 42 | 267 | 0.0 | 0.0 | 0.00 | 0.00 | 0.00 | 81 | 1017.5 |
| 20260504040041 | 43 | 247 | 1.0 | 1.0 | 0.00 | 0.00 | 0.00 | 81 | 1017.7 |
| 20260504035538 | 43 | 275 | 0.0 | 0.0 | 0.00 | 0.00 | 0.00 | 81 | 1017.4 |
| 20260504035034 | 43 | 274 | 0.0 | 0.0 | 0.00 | 0.00 | 0.00 | 78 | 1017.4 |
| 20260504034532 | 43 | 280 | 0.0 | 0.0 | 0.00 | 0.00 | 0.00 | 77 | 1017.2 |
| 20260504034029 | 43 | 276 | 0.0 | 1.0 | 0.00 | 0.00 | 0.00 | 74 | 1017.5 |
| 20260504033527 | 43 | 272 | 0.0 | 0.0 | 0.00 | 0.00 | 0.00 | 75 | 1017.1 |
| 20260504033024 | 43 | 277 | 1.0 | 1.0 | 0.00 | 0.00 | 0.00 | 75 | 1017.2 |
| 20260504032521 | 43 | 275 | 0.0 | 0.0 | 0.00 | 0.00 | 0.00 | 74 | 1017.2 |
| 20260504032017 | 43 | 281 | 1.0 | 1.0 | 0.00 | 0.00 | 0.00 | 72 | 1017.1 |
| 20260504031514 | 43 | 268 | 0.0 | 0.0 | 0.00 | 0.00 | 0.00 | 75 | 1017.2 |
| 20260504031010 | 43 | 263 | 0.0 | 0.0 | 0.00 | 0.00 | 0.00 | 76 | 1017.3 |
| 20260504030508 | 42 | 269 | 0.0 | 0.0 | 0.00 | 0.00 | 0.00 | 78 | 1017.2 |
| 20260504030004 | 42 | 267 | 0.0 | 0.0 | 0.00 | 0.00 | 0.00 | 79 | 1017.6 |
| 20260504025501 | 42 | 265 | 0.0 | 0.0 | 0.00 | 0.00 | 0.00 | 78 | 1017.1 |
| 20260504024958 | 42 | 262 | 0.0 | 0.0 | 0.00 | 0.00 | 0.00 | 78 | 1017.2 |
| 20260504024454 | 42 | 270 | 0.0 | 1.0 | 0.00 | 0.00 | 0.00 | 79 | 1017.2 |
| 20260504023952 | 42 | 270 | 0.0 | 1.0 | 0.00 | 0.00 | 0.00 | 77 | 1017.3 |
| 20260504023449 | 41 | 275 | 1.0 | 1.0 | 0.00 | 0.00 | 0.00 | 78 | 1017.3 |
| 20260504022944 | 41 | 271 | 0.0 | 0.0 | 0.00 | 0.00 | 0.00 | 79 | 1017.3 |
| 20260504022440 | 40 | 271 | 0.0 | 0.0 | 0.00 | 0.00 | 0.00 | 79 | 1017.4 |
| 20260504021937 | 40 | 271 | 0.0 | 0.0 | 0.00 | 0.00 | 0.00 | 80 | 1017.2 |
| 20260504021434 | 40 | 271 | 0.0 | 0.0 | 0.00 | 0.00 | 0.00 | 81 | 1017.4 |
| 20260504020931 | 40 | 272 | 0.0 | 0.0 | 0.00 | 0.00 | 0.00 | 81 | 1017.4 |
| 20260504020428 | 39 | 254 | 0.0 | 1.0 | 0.00 | 0.00 | 0.00 | 81 | 1017.2 |
| 20260504015925 | 39 | 272 | 0.0 | 0.0 | 0.00 | 0.00 | 0.00 | 81 | 1017.2 |
| 20260504015421 | 40 | 285 | 1.0 | 1.0 | 0.00 | 0.00 | 0.00 | 80 | 1017.1 |
| 20260504014917 | 40 | 267 | 0.0 | 0.0 | 0.00 | 0.00 | 0.00 | 76 | 1017.1 |
| 20260504014413 | 40 | 266 | 0.0 | 0.0 | 0.00 | 0.00 | 0.00 | 76 | 1017.0 |
| 20260504013910 | 40 | 263 | 0.0 | 0.0 | 0.00 | 0.00 | 0.00 | 74 | 1016.7 |
| 20260504013409 | 41 | 267 | 0.0 | 0.0 | 0.00 | 0.00 | 0.00 | 74 | 1016.9 |
| 20260504012904 | 41 | 262 | 0.0 | 0.0 | 0.00 | 0.00 | 0.00 | 73 | 1016.7 |
| 20260504012402 | 41 | 258 | 0.0 | 0.0 | 0.00 | 0.00 | 0.00 | 72 | 1016.4 |
| 20260504011859 | 42 | 263 | 0.0 | 0.0 | 0.00 | 0.00 | 0.00 | 71 | 1016.6 |
| 20260504011356 | 42 | 268 | 0.0 | 0.0 | 0.00 | 0.00 | 0.00 | 69 | 1016.6 |
| 20260504010852 | 43 | 268 | 0.0 | 0.0 | 0.00 | 0.00 | 0.00 | 68 | 1016.4 |
| 20260504010348 | 43 | 262 | 0.0 | 0.0 | 0.00 | 0.00 | 0.00 | 68 | 1016.4 |
| 20260504005844 | 43 | 251 | 0.0 | 0.0 | 0.00 | 0.00 | 0.00 | 68 | 1016.6 |
| 20260504005341 | 44 | 260 | 0.0 | 1.0 | 0.00 | 0.00 | 0.00 | 65 | 1016.5 |
| 20260504004839 | 44 | 262 | 0.0 | 0.0 | 0.00 | 0.00 | 0.00 | 65 | 1016.2 |
| 20260504004336 | 45 | 269 | 0.0 | 0.0 | 0.00 | 0.00 | 0.00 | 63 | 1016.1 |
| 20260504003833 | 45 | 264 | 0.0 | 0.0 | 0.00 | 0.00 | 0.00 | 62 | 1016.2 |
| 20260504003330 | 46 | 234 | 0.0 | 1.0 | 0.00 | 0.00 | 0.00 | 62 | 1016.4 |
| 20260504002826 | 46 | 269 | 0.0 | 1.0 | 0.00 | 0.00 | 0.00 | 63 | 1016.1 |
| 20260504002323 | 47 | 270 | 0.0 | 1.0 | 0.00 | 0.00 | 0.00 | 60 | 1016.1 |
| 20260504001821 | 47 | 269 | 0.0 | 1.0 | 0.00 | 0.00 | 0.00 | 61 | 1016.1 |
| 20260504001318 | 48 | 270 | 0.0 | 0.0 | 0.00 | 0.00 | 0.00 | 56 | 1016.0 |
| 20260504000815 | 49 | 262 | 0.0 | 0.0 | 0.00 | 0.00 | 0.00 | 55 | 1016.0 |
| 20260504000312 | 49 | 270 | 0.0 | 0.0 | 0.00 | 0.00 | 0.00 | 54 | 1016.0 |
| 20260503235810 | 50 | 263 | 0.0 | 0.0 | 0.00 | 0.00 | 0.00 | 53 | 1016.0 |
| 20260503235307 | 51 | 266 | 0.0 | 0.0 | 0.00 | 0.00 | 0.00 | 52 | 1015.9 |
| 20260503234804 | 52 | 272 | 1.0 | 2.0 | 0.00 | 0.00 | 0.00 | 50 | 1016.0 |
| 20260503234302 | 53 | 263 | 1.0 | 1.0 | 0.00 | 0.00 | 0.00 | 46 | 1016.0 |
| 20260503233800 | 54 | 264 | 0.0 | 0.0 | 0.00 | 0.00 | 0.00 | 42 | 1015.9 |
| 20260503233255 | 55 | 286 | 1.0 | 1.0 | 0.00 | 0.00 | 0.00 | 40 | 1016.1 |
| 20260503232752 | 55 | 217 | 1.0 | 1.0 | 0.00 | 0.00 | 0.00 | 36 | 1015.9 |
| 20260503232250 | 56 | 269 | 0.0 | 0.0 | 0.00 | 0.00 | 0.00 | 37 | 1016.1 |
| 20260503231747 | 56 | 271 | 1.0 | 1.0 | 0.00 | 0.00 | 0.00 | 37 | 1016.0 |
| 20260503231244 | 57 | 273 | 1.0 | 2.0 | 0.00 | 0.00 | 0.00 | 34 | 1016.0 |
| 20260503230739 | 58 | 269 | 0.0 | 1.0 | 0.00 | 0.00 | 0.00 | 35 | 1015.8 |
| 20260503230237 | 58 | 276 | 0.0 | 1.0 | 0.00 | 0.00 | 0.00 | 39 | 1015.9 |
| 20260503225735 | 59 | 258 | 1.0 | 1.0 | 0.00 | 0.00 | 0.00 | 35 | 1015.8 |
| 20260503225235 | 59 | 278 | 1.0 | 1.0 | 0.00 | 0.00 | 0.00 | 35 | 1015.7 |
| 20260503224732 | 60 | 260 | 0.0 | 1.0 | 0.00 | 0.00 | 0.00 | 36 | 1015.6 |
| 20260503224230 | 61 | 183 | 1.0 | 2.0 | 0.00 | 0.00 | 0.00 | 31 | 1015.8 |
| 20260503223727 | 61 | 253 | 1.0 | 1.0 | 0.00 | 0.00 | 0.00 | 31 | 1015.7 |
| 20260503223225 | 60 | 241 | 1.0 | 1.0 | 0.00 | 0.00 | 0.00 | 34 | 1015.7 |
| 20260503222721 | 60 | 302 | 2.0 | 3.0 | 0.00 | 0.00 | 0.00 | 33 | 1015.7 |
| 20260503222219 | 61 | 266 | 1.0 | 2.0 | 0.00 | 0.00 | 0.00 | 29 | 1015.7 |
| 20260503221717 | 61 | 260 | 1.0 | 2.0 | 0.00 | 0.00 | 0.00 | 28 | 1015.8 |
| 20260503221215 | 59 | 278 | 0.0 | 1.0 | 0.00 | 0.00 | 0.00 | 34 | 1015.8 |
| 20260503220711 | 61 | 294 | 2.0 | 2.0 | 0.00 | 0.00 | 0.00 | 31 | 1015.8 |
| 20260503220208 | 61 | 263 | 1.0 | 1.0 | 0.00 | 0.00 | 0.00 | 30 | 1015.8 |
| 20260503215704 | 61 | 269 | 5.0 | 8.0 | 0.00 | 0.00 | 0.00 | 30 | 1015.9 |
| 20260503215201 | 60 | 260 | 2.0 | 3.0 | 0.00 | 0.00 | 0.00 | 31 | 1015.6 |
| 20260503214700 | 61 | 151 | 2.0 | 2.0 | 0.00 | 0.00 | 0.00 | 31 | 1016.1 |
| 20260503214155 | 60 | 258 | 1.0 | 1.0 | 0.00 | 0.00 | 0.00 | 34 | 1015.8 |
| 20260503213655 | 61 | 257 | 2.0 | 2.0 | 0.00 | 0.00 | 0.00 | 32 | 1015.8 |
| 20260503213151 | 60 | 349 | 1.0 | 2.0 | 0.00 | 0.00 | 0.00 | 32 | 1015.8 |
| 20260503212648 | 62 | 262 | 1.0 | 1.0 | 0.00 | 0.00 | 0.00 | 30 | 1015.9 |
| 20260503212146 | 61 | 295 | 2.0 | 2.0 | 0.00 | 0.00 | 0.00 | 29 | 1015.8 |
| 20260503211643 | 61 | 342 | 3.0 | 3.0 | 0.00 | 0.00 | 0.00 | 32 | 1016.0 |
| 20260503211138 | 61 | 257 | 1.0 | 2.0 | 0.00 | 0.00 | 0.00 | 35 | 1015.8 |
| 20260503210635 | 60 | 269 | 1.0 | 2.0 | 0.00 | 0.00 | 0.00 | 31 | 1016.1 |
| 20260503210132 | 61 | 216 | 2.0 | 2.0 | 0.00 | 0.00 | 0.00 | 31 | 1016.2 |
| 20260503205628 | 61 | 268 | 3.0 | 3.0 | 0.00 | 0.00 | 0.00 | 33 | 1016.1 |
| 20260503205124 | 60 | 244 | 1.0 | 1.0 | 0.00 | 0.00 | 0.00 | 33 | 1015.9 |
| 20260503204621 | 61 | 356 | 2.0 | 2.0 | 0.00 | 0.00 | 0.00 | 33 | 1016.1 |
| 20260503204119 | 61 | 285 | 1.0 | 1.0 | 0.00 | 0.00 | 0.00 | 32 | 1016.2 |
| 20260503203615 | 61 | 276 | 2.0 | 3.0 | 0.00 | 0.00 | 0.00 | 31 | 1016.2 |
| 20260503203113 | 60 | 260 | 1.0 | 2.0 | 0.00 | 0.00 | 0.00 | 31 | 1016.6 |
| 20260503202610 | 61 | 203 | 2.0 | 2.0 | 0.00 | 0.00 | 0.00 | 29 | 1016.2 |
| 20260503202108 | 60 | 231 | 4.0 | 6.0 | 0.00 | 0.00 | 0.00 | 32 | 1016.4 |
| 20260503201606 | 60 | 251 | 3.0 | 3.0 | 0.00 | 0.00 | 0.00 | 32 | 1016.4 |
| 20260503201103 | 60 | 244 | 1.0 | 2.0 | 0.00 | 0.00 | 0.00 | 35 | 1016.7 |
| 20260503200559 | 61 | 277 | 1.0 | 2.0 | 0.00 | 0.00 | 0.00 | 32 | 1016.6 |
| 20260503200056 | 61 | 96 | 3.0 | 5.0 | 0.00 | 0.00 | 0.00 | 33 | 1016.7 |
| 20260503195553 | 61 | 253 | 3.0 | 5.0 | 0.00 | 0.00 | 0.00 | 32 | 1016.6 |
| 20260503195050 | 61 | 341 | 1.0 | 2.0 | 0.00 | 0.00 | 0.00 | 38 | 1016.9 |
| 20260503194547 | 60 | 265 | 1.0 | 2.0 | 0.00 | 0.00 | 0.00 | 32 | 1017.0 |
| 20260503194046 | 60 | 72 | 5.0 | 8.0 | 0.00 | 0.00 | 0.00 | 30 | 1016.7 |
| 20260503193544 | 60 | 235 | 1.0 | 1.0 | 0.00 | 0.00 | 0.00 | 30 | 1017.0 |
| 20260503193044 | 61 | 257 | 4.0 | 7.0 | 0.00 | 0.00 | 0.00 | 32 | 1016.9 |
| 20260503192541 | 60 | 248 | 2.0 | 2.0 | 0.00 | 0.00 | 0.00 | 35 | 1016.8 |
| 20260503192037 | 60 | 250 | 2.0 | 2.0 | 0.00 | 0.00 | 0.00 | 34 | 1017.0 |
| 20260503191534 | 59 | 113 | 2.0 | 2.0 | 0.00 | 0.00 | 0.00 | 33 | 1017.3 |
| 20260503191031 | 59 | 314 | 2.0 | 3.0 | 0.00 | 0.00 | 0.00 | 32 | 1017.1 |
| 20260503190528 | 59 | 280 | 3.0 | 3.0 | 0.00 | 0.00 | 0.00 | 32 | 1017.0 |
| 20260503190025 | 59 | 233 | 2.0 | 3.0 | 0.00 | 0.00 | 0.00 | 31 | 1017.4 |
| 20260503185521 | 59 | 261 | 2.0 | 3.0 | 0.00 | 0.00 | 0.00 | 30 | 1017.4 |
| 20260503185020 | 59 | 306 | 8.0 | 9.0 | 0.00 | 0.00 | 0.00 | 30 | 1017.4 |
| 20260503184517 | 59 | 325 | 5.0 | 6.0 | 0.00 | 0.00 | 0.00 | 34 | 1017.5 |
| 20260503184013 | 58 | 306 | 2.0 | 2.0 | 0.00 | 0.00 | 0.00 | 33 | 1017.6 |
| 20260503183510 | 58 | 302 | 2.0 | 2.0 | 0.00 | 0.00 | 0.00 | 35 | 1017.6 |
| 20260503183007 | 58 | 24 | 5.0 | 7.0 | 0.00 | 0.00 | 0.00 | 33 | 1017.5 |
| 20260503182506 | 57 | 269 | 3.0 | 3.0 | 0.00 | 0.00 | 0.00 | 32 | 1017.7 |
| 20260503182004 | 57 | 42 | 3.0 | 3.0 | 0.00 | 0.00 | 0.00 | 36 | 1017.6 |
| 20260503181500 | 59 | 72 | 2.0 | 2.0 | 0.00 | 0.00 | 0.00 | 35 | 1017.8 |
| 20260503180956 | 58 | 141 | 3.0 | 3.0 | 0.00 | 0.00 | 0.00 | 36 | 1017.6 |
| 20260503180454 | 57 | 321 | 3.0 | 5.0 | 0.00 | 0.00 | 0.00 | 37 | 1017.6 |
| 20260503175951 | 59 | 182 | 2.0 | 3.0 | 0.00 | 0.00 | 0.00 | 34 | 1017.7 |
| 20260503175449 | 57 | 260 | 0.0 | 1.0 | 0.00 | 0.00 | 0.00 | 42 | 1017.7 |
| 20260503174944 | 57 | 189 | 1.0 | 1.0 | 0.00 | 0.00 | 0.00 | 37 | 1017.9 |
| 20260503174443 | 58 | 220 | 4.0 | 6.0 | 0.00 | 0.00 | 0.00 | 34 | 1017.9 |
| 20260503173944 | 57 | 232 | 2.0 | 2.0 | 0.00 | 0.00 | 0.00 | 38 | 1018.0 |
| 20260503173440 | 57 | 247 | 2.0 | 3.0 | 0.00 | 0.00 | 0.00 | 38 | 1017.9 |
| 20260503172937 | 57 | 273 | 2.0 | 2.0 | 0.00 | 0.00 | 0.00 | 34 | 1018.0 |
| 20260503172434 | 57 | 263 | 2.0 | 3.0 | 0.00 | 0.00 | 0.00 | 34 | 1018.2 |
| 20260503171930 | 56 | 266 | 1.0 | 1.0 | 0.00 | 0.00 | 0.00 | 38 | 1018.2 |
| 20260503171427 | 57 | 201 | 2.0 | 3.0 | 0.00 | 0.00 | 0.00 | 39 | 1018.2 |
| 20260503170925 | 56 | 250 | 3.0 | 5.0 | 0.00 | 0.00 | 0.00 | 37 | 1018.0 |
| 20260503170421 | 57 | 279 | 2.0 | 2.0 | 0.00 | 0.00 | 0.00 | 40 | 1018.3 |
| 20260503150813 | 50 | 188 | 4.0 | 6.0 | 0.00 | 0.00 | 0.00 | 45 | 1019.4 |
| 20260503150309 | 50 | 310 | 3.0 | 5.0 | 0.00 | 0.00 | 0.00 | 50 | 1019.5 |
| 20260503140234 | 50 | 259 | 2.0 | 3.0 | 0.00 | 0.00 | 0.00 | 52 | 1019.3 |
| 20260503131203 | 47 | 118 | 1.0 | 2.0 | 0.00 | 0.00 | 0.00 | 52 | 1019.3 |
| 20260503130701 | 47 | 144 | 3.0 | 3.0 | 0.00 | 0.00 | 0.00 | 54 | 1019.2 |
| 20260503130158 | 46 | 251 | 1.0 | 1.0 | 0.00 | 0.00 | 0.00 | 53 | 1019.3 |
| 20260503120123 | 44 | 269 | 2.0 | 3.0 | 0.00 | 0.00 | 0.00 | 58 | 1019.0 |
| 20260503110551 | 35 | 260 | 0.0 | 0.0 | 0.00 | 0.00 | 0.00 | 81 | 1018.6 |
| 20260503090438 | 38 | 291 | 0.0 | 1.0 | 0.00 | 0.00 | 0.00 | 79 | 1017.0 |
| 20260503081404 | 38 | 267 | 0.0 | 1.0 | 0.00 | 0.00 | 0.00 | 77 | 1016.9 |
| 20260503080901 | 38 | 235 | 1.0 | 1.0 | 0.00 | 0.00 | 0.00 | 81 | 1016.9 |
| 20260503080358 | 38 | 276 | 0.0 | 1.0 | 0.00 | 0.00 | 0.00 | 81 | 1016.7 |
| 20260503072834 | 36 | 261 | 0.0 | 0.0 | 0.00 | 0.00 | 0.00 | 85 | 1016.4 |
| 20260503072331 | 36 | 256 | 0.0 | 0.0 | 0.00 | 0.00 | 0.00 | 85 | 1016.5 |
| 20260503071827 | 35 | 259 | 0.0 | 0.0 | 0.00 | 0.00 | 0.00 | 86 | 1016.5 |
| 20260503071325 | 36 | 277 | 1.0 | 2.0 | 0.00 | 0.00 | 0.00 | 86 | 1016.5 |
| 20260503070821 | 36 | 266 | 0.0 | 0.0 | 0.00 | 0.00 | 0.00 | 85 | 1016.5 |
| 20260503070319 | 36 | 264 | 0.0 | 0.0 | 0.00 | 0.00 | 0.00 | 85 | 1016.4 |